Location: Unspecified
(0.0000°N, 0.0000°E)
Time: 06:17:31
(UTC+00:00)

ISS - Pass Details

Date: 21 May 2019
Orbit: 407 x 410 km, 51.6° (Epoch: 23 May)

Event Time Altitude Azimuth Distance (km) Brightness Sun altitude
Rises 04:56:27 0° 327° (NNW) 2,318 -0.1 -14.1°
Reaches altitude 10° 04:58:32 10° 329° (NNW) 1,461 -1.1 -13.6°
Maximum altitude 05:01:48 75° 53° (NE) 425 -3.6 -12.8°
Drops below altitude 10° 05:05:05 10° 140° (SE) 1,468 -0.8 -12.1°
Sets 05:07:11 0° 142° (SE) 2,331 0.3 -11.6°
